• In Uzbekistan
  • List of Countries
  • For 7 days
  • Water Temperature
  • Satellite Maps
  • Weather Map
  • Weather Widgets
  • user-avatar
    Login

    Hourly Weather Repevka

    Today, 22 July, Sunday

    Time Temperature Precipitation Wind Pressure Humidity
    00:00 +20°C° 0 mm 4 mps 743 mmHg 94%
    01:00 +19°C° 0 mm 3 mps 743 mmHg 95%
    02:00 +19°C° 0 mm 3 mps 743 mmHg 95%
    03:00 +18°C° 0 mm 2 mps 742 mmHg 97%
    04:00 +18°C° 0 mm 3 mps 743 mmHg 96%
    05:00 +19°C° 0 mm 3 mps 743 mmHg 94%
    06:00 +19°C° 0 mm 4 mps 743 mmHg 93%
    07:00 +20°C° 0 mm 4 mps 743 mmHg 88%
    08:00 +22°C° 0 mm 4 mps 743 mmHg 84%
    09:00 +23°C° 0 mm 5 mps 743 mmHg 80%
    10:00 +23°C° 0.2 mm 5 mps 743 mmHg 79%
    11:00 +25°C° 0.2 mm 5 mps 743 mmHg 78%
    12:00 +24°C° 0.2 mm 6 mps 743 mmHg 77%
    13:00 +24°C° 0.2 mm 6 mps 743 mmHg 76%
    14:00 +26°C° 0.2 mm 6 mps 743 mmHg 76%
    15:00 +26°C° 0.2 mm 6 mps 743 mmHg 75%
    16:00 +24°C° 0.3 mm 6 mps 743 mmHg 78%
    17:00 +23°C° 0.3 mm 6 mps 743 mmHg 80%
    18:00 +23°C° 0.3 mm 6 mps 743 mmHg 83%
    19:00 +22°C° 0.1 mm 6 mps 743 mmHg 84%
    20:00 +21°C° 0.1 mm 7 mps 743 mmHg 85%
    21:00 +21°C° 0.1 mm 7 mps 743 mmHg 87%
    22:00 +20°C° 0 mm 6 mps 743 mmHg 86%
    23:00 +19°C° 0 mm 6 mps 743 mmHg 86%

    Tomorrow, 23 July, Monday

    Time Temperature Precipitation Wind Pressure Humidity
    00:00 +19°C° 0 mm 6 mps 743 mmHg 86%
    01:00 +17°C° 0.1 mm 6 mps 743 mmHg 86%
    02:00 +17°C° 0.1 mm 6 mps 744 mmHg 86%
    03:00 +16°C° 0.1 mm 6 mps 744 mmHg 85%
    04:00 +16°C° 0 mm 6 mps 744 mmHg 84%
    05:00 +16°C° 0 mm 6 mps 744 mmHg 82%
    06:00 +16°C° 0 mm 6 mps 744 mmHg 81%
    07:00 +17°C° 0 mm 6 mps 744 mmHg 79%
    08:00 +20°C° 0 mm 6 mps 744 mmHg 78%
    09:00 +21°C° 0 mm 6 mps 744 mmHg 76%
    10:00 +22°C° 0.2 mm 6 mps 744 mmHg 75%
    11:00 +23°C° 0.2 mm 6 mps 744 mmHg 74%
    12:00 +24°C° 0.2 mm 7 mps 744 mmHg 74%
    13:00 +26°C° 0.4 mm 7 mps 744 mmHg 74%
    14:00 +26°C° 0.4 mm 7 mps 744 mmHg 74%
    15:00 +26°C° 0.4 mm 7 mps 744 mmHg 74%
    16:00 +26°C° 0.2 mm 7 mps 744 mmHg 76%
    17:00 +24°C° 0.2 mm 6 mps 744 mmHg 78%
    18:00 +24°C° 0.2 mm 6 mps 745 mmHg 81%
    19:00 +23°C° 0.1 mm 6 mps 745 mmHg 80%
    20:00 +22°C° 0.1 mm 6 mps 745 mmHg 80%
    21:00 +21°C° 0.1 mm 6 mps 745 mmHg 80%
    22:00 +21°C° 0 mm 6 mps 746 mmHg 81%
    23:00 +20°C° 0 mm 5 mps 746 mmHg 82%

    Day after tomorrow, 24 July, Tuesday

    Time Temperature Precipitation Wind Pressure Humidity
    00:00 +20°C° 0 mm 5 mps 746 mmHg 82%
    01:00 +19°C° 0.1 mm 5 mps 746 mmHg 83%
    02:00 +19°C° 0.1 mm 4 mps 746 mmHg 84%
    03:00 +18°C° 0.1 mm 4 mps 746 mmHg 84%
    04:00 +18°C° 0.2 mm 4 mps 746 mmHg 84%
    05:00 +17°C° 0.2 mm 5 mps 746 mmHg 84%
    06:00 +17°C° 0.2 mm 5 mps 747 mmHg 84%
    07:00 +19°C° 0.1 mm 5 mps 747 mmHg 80%
    08:00 +20°C° 0.1 mm 5 mps 747 mmHg 76%
    09:00 +21°C° 0.1 mm 5 mps 747 mmHg 73%
    10:00 +22°C° 0 mm 5 mps 748 mmHg 70%
    11:00 +23°C° 0 mm 5 mps 748 mmHg 68%
    12:00 +24°C° 0 mm 6 mps 748 mmHg 66%
    13:00 +25°C° 0.1 mm 5 mps 748 mmHg 67%
    14:00 +25°C° 0.1 mm 5 mps 748 mmHg 68%
    15:00 +25°C° 0.1 mm 4 mps 748 mmHg 69%
    16:00 +26°C° 0 mm 4 mps 748 mmHg 68%
    17:00 +26°C° 0 mm 4 mps 748 mmHg 68%
    18:00 +26°C° 0 mm 4 mps 749 mmHg 67%
    19:00 +25°C° 0 mm 4 mps 749 mmHg 67%
    20:00 +23°C° 0 mm 4 mps 749 mmHg 67%
    21:00 +22°C° 0 mm 5 mps 749 mmHg 68%
    22:00 +21°C° 0 mm 5 mps 749 mmHg 64%
    23:00 +21°C° 0 mm 5 mps 749 mmHg 61%

    25 July, Wednesday

    Time Temperature Precipitation Wind Pressure Humidity
    00:00 +21°C° 0 mm 5 mps 749 mmHg 57%
    01:00 +21°C° 0 mm 5 mps 749 mmHg 57%
    02:00 +20°C° 0 mm 5 mps 750 mmHg 56%
    03:00 +20°C° 0 mm 5 mps 750 mmHg 55%
    04:00 +19°C° 0 mm 5 mps 750 mmHg 59%
    05:00 +19°C° 0 mm 5 mps 750 mmHg 64%
    06:00 +18°C° 0 mm 4 mps 750 mmHg 68%
    07:00 +19°C° 0 mm 4 mps 750 mmHg 69%
    08:00 +20°C° 0 mm 4 mps 751 mmHg 69%
    09:00 +21°C° 0 mm 5 mps 751 mmHg 70%
    10:00 +22°C° 0 mm 4 mps 751 mmHg 69%
    11:00 +22°C° 0 mm 4 mps 751 mmHg 68%
    12:00 +23°C° 0 mm 4 mps 751 mmHg 67%
    13:00 +25°C° 0 mm 4 mps 751 mmHg 65%
    14:00 +26°C° 0 mm 4 mps 751 mmHg 64%
    15:00 +27°C° 0 mm 4 mps 751 mmHg 63%
    16:00 +27°C° 0 mm 4 mps 751 mmHg 64%
    17:00 +27°C° 0 mm 4 mps 751 mmHg 66%
    18:00 +27°C° 0 mm 4 mps 751 mmHg 68%
    19:00 +25°C° 0 mm 4 mps 751 mmHg 69%
    20:00 +23°C° 0 mm 4 mps 751 mmHg 71%
    21:00 +21°C° 0 mm 4 mps 751 mmHg 72%
    22:00 +22°C° 0 mm 4 mps 752 mmHg 68%
    23:00 +23°C° 0 mm 5 mps 752 mmHg 64%

    26 July, Thursday

    Time Temperature Precipitation Wind Pressure Humidity
    00:00 +23°C° 0 mm 5 mps 752 mmHg 60%
    01:00 +23°C° 0 mm 5 mps 752 mmHg 59%
    02:00 +23°C° 0 mm 5 mps 752 mmHg 57%
    03:00 +23°C° 0 mm 6 mps 752 mmHg 56%
    04:00 +23°C° 0 mm 5 mps 752 mmHg 61%
    05:00 +22°C° 0 mm 5 mps 752 mmHg 66%
    06:00 +22°C° 0 mm 5 mps 752 mmHg 71%
    07:00 +23°C° 0 mm 6 mps 752 mmHg 68%
    08:00 +24°C° 0 mm 6 mps 752 mmHg 66%
    09:00 +26°C° 0 mm 6 mps 753 mmHg 63%
    10:00 +27°C° 0 mm 6 mps 753 mmHg 60%
    11:00 +29°C° 0 mm 6 mps 753 mmHg 57%
    12:00 +30°C° 0 mm 6 mps 753 mmHg 54%
    13:00 +30°C° 0 mm 6 mps 753 mmHg 53%
    14:00 +32°C° 0 mm 6 mps 753 mmHg 53%
    15:00 +32°C° 0 mm 6 mps 753 mmHg 52%
    16:00 +30°C° 0 mm 5 mps 753 mmHg 56%
    17:00 +30°C° 0 mm 4 mps 753 mmHg 60%
    18:00 +29°C° 0 mm 4 mps 753 mmHg 65%
    19:00 +28°C° 0 mm 4 mps 753 mmHg 67%
    20:00 +26°C° 0 mm 4 mps 753 mmHg 69%
    21:00 +23°C° 0 mm 4 mps 753 mmHg 71%
    22:00 +23°C° 0 mm 4 mps 754 mmHg 72%
    23:00 +22°C° 0 mm 4 mps 754 mmHg 73%

    27 July, Friday

    Time Temperature Precipitation Wind Pressure Humidity
    00:00 +21°C° 0 mm 3 mps 754 mmHg 74%
    01:00 +21°C° 0 mm 3 mps 754 mmHg 76%
    02:00 +20°C° 0 mm 3 mps 754 mmHg 78%
    03:00 +20°C° 0 mm 3 mps 754 mmHg 80%
    04:00 +20°C° 0 mm 3 mps 754 mmHg 80%
    05:00 +20°C° 0 mm 4 mps 754 mmHg 81%
    06:00 +21°C° 0 mm 4 mps 754 mmHg 81%
    07:00 +22°C° 0 mm 4 mps 754 mmHg 76%
    08:00 +25°C° 0 mm 4 mps 754 mmHg 71%
    09:00 +27°C° 0 mm 5 mps 754 mmHg 66%
    10:00 +28°C° 0 mm 5 mps 754 mmHg 61%
    11:00 +29°C° 0 mm 5 mps 754 mmHg 55%
    12:00 +30°C° 0 mm 5 mps 754 mmHg 50%
    13:00 +30°C° 0 mm 5 mps 754 mmHg 50%
    14:00 +30°C° 0 mm 5 mps 754 mmHg 50%
    15:00 +30°C° 0 mm 5 mps 753 mmHg 51%
    16:00 +30°C° 0 mm 4 mps 753 mmHg 55%
    17:00 +29°C° 0 mm 4 mps 753 mmHg 59%
    18:00 +29°C° 0 mm 3 mps 753 mmHg 63%
    19:00 +27°C° 0 mm 3 mps 753 mmHg 67%
    20:00 +25°C° 0 mm 3 mps 754 mmHg 70%
    21:00 +22°C° 0 mm 3 mps 754 mmHg 74%
    22:00 +22°C° 0 mm 3 mps 754 mmHg 75%
    23:00 +21°C° 0 mm 3 mps 754 mmHg 76%
    Show more